^^
Your Local Weather - Clay, NY Station Historical Data
Daily Summary for January 21, 2017 Units:  Metric    English   Both
« Previous Day
Next Day »
Daily Weekly Monthly Yearly Custom
  High: Low: Average:
Temperature: 10.1 °C 2.3 °C 5.6 °C
Dew Point: 7.1 °C 1.4 °C 4.1 °C
Humidity: 95% 80% 91%
Wind Speed: 4.8km/h 0km/h 1.1km/h
Wind Gust: 8km/h - -
Wind- - East
Pressure: 1009 hPa 1004.3 hPa -
Precipitation: 0 mm    
Historical Graphs
 
 
Tabular Data for January 21, 2017
Time Temperature Dew Point Pressure Wind Wind Speed Wind Gust Humidity Rainfall Rate (Hourly) solar
00:00 2.3 °C 1.4 °C 1008.4 hPa Calm     94% 0 mm 0 W/m2
00:06 2.3 °C 1.4 °C 1008.4 hPa Calm     94% 0 mm 0 W/m2
00:12 2.3 °C 1.4 °C 1008.4 hPa Calm     94% 0 mm 0 W/m2
00:18 2.4 °C 1.5 °C 1008.4 hPa Calm     94% 0 mm 0 W/m2
00:24 2.4 °C 1.5 °C 1008.4 hPa Calm     94% 0 mm 0 W/m2
00:30 2.3 °C 1.4 °C 1008.4 hPa Calm     94% 0 mm 0 W/m2
00:36 2.3 °C 1.4 °C 1008.4 hPa Calm   1.6 km/h 94% 0 mm 0 W/m2
00:42 2.3 °C 1.4 °C 1008.4 hPa Calm     94% 0 mm 0 W/m2
00:48 2.3 °C 1.4 °C 1008.4 hPa Calm     94% 0 mm 0 W/m2
00:54 2.4 °C 1.5 °C 1008.4 hPa Calm     94% 0 mm 0 W/m2
01:00 2.4 °C 1.6 °C 1008 hPa Calm     94% 0 mm 0 W/m2
01:06 2.4 °C 1.5 °C 1008 hPa Calm     94% 0 mm 0 W/m2
01:12 2.3 °C 1.4 °C 1008 hPa Calm     94% 0 mm 0 W/m2
01:18 2.3 °C 1.4 °C 1008 hPa Calm     94% 0 mm 0 W/m2
01:24 2.4 °C 1.5 °C 1008.4 hPa Calm     94% 0 mm 0 W/m2
01:30 2.4 °C 1.5 °C 1008.4 hPa Calm     94% 0 mm 0 W/m2
01:36 2.4 °C 1.5 °C 1008.4 hPa Calm     94% 0 mm 0 W/m2
01:42 2.3 °C 1.4 °C 1008.4 hPa Calm     94% 0 mm 0 W/m2
01:48 2.3 °C 1.4 °C 1008.4 hPa Calm   1.6 km/h 94% 0 mm 0 W/m2
01:54 2.4 °C 1.5 °C 1008.4 hPa Calm     94% 0 mm 0 W/m2
02:00 2.4 °C 1.5 °C 1008.4 hPa Calm     94% 0 mm 0 W/m2
02:06 2.4 °C 1.6 °C 1008.7 hPa Calm     94% 0 mm 0 W/m2
02:12 2.4 °C 1.6 °C 1008.7 hPa Calm     94% 0 mm 0 W/m2
02:18 2.5 °C 1.6 °C 1008.7 hPa Calm     94% 0 mm 0 W/m2
02:24 2.6 °C 1.7 °C 1008.7 hPa Calm     94% 0 mm 0 W/m2
02:30 2.5 °C 1.6 °C 1009 hPa Calm     94% 0 mm 0 W/m2
02:36 2.5 °C 1.6 °C 1009 hPa Calm     94% 0 mm 0 W/m2
02:42 2.6 °C 1.7 °C 1009 hPa Calm     94% 0 mm 0 W/m2
02:48 2.6 °C 1.7 °C 1009 hPa Calm     94% 0 mm 0 W/m2
02:54 2.6 °C 1.7 °C 1009 hPa Calm     94% 0 mm 0 W/m2
03:00 2.6 °C 1.7 °C 1009 hPa Calm     94% 0 mm 0 W/m2
03:06 2.6 °C 1.7 °C 1009 hPa Calm     94% 0 mm 0 W/m2
03:12 2.7 °C 1.8 °C 1008.7 hPa Calm     94% 0 mm 0 W/m2
03:18 2.7 °C 1.8 °C 1008.7 hPa Calm     94% 0 mm 0 W/m2
03:24 2.7 °C 1.8 °C 1008.7 hPa Calm   1.6 km/h 94% 0 mm 0 W/m2
03:30 2.7 °C 1.8 °C 1008.7 hPa Calm   3.2 km/h 94% 0 mm 0 W/m2
03:36 2.7 °C 1.8 °C 1008.7 hPa Calm   3.2 km/h 94% 0 mm 0 W/m2
03:42 2.7 °C 1.8 °C 1008.7 hPa Calm     94% 0 mm 0 W/m2
03:48 2.8 °C 1.9 °C 1008.7 hPa Calm     94% 0 mm 0 W/m2
03:54 2.8 °C 1.9 °C 1008.7 hPa Calm     94% 0 mm 0 W/m2
04:00 2.8 °C 1.9 °C 1008.7 hPa Calm     94% 0 mm 0 W/m2
04:06 2.8 °C 1.9 °C 1008.7 hPa Calm     94% 0 mm 0 W/m2
04:12 2.8 °C 1.9 °C 1008.4 hPa Calm     94% 0 mm 0 W/m2
04:18 2.8 °C 1.9 °C 1008.4 hPa Calm     94% 0 mm 0 W/m2
04:24 2.9 °C 2 °C 1008.7 hPa Calm     94% 0 mm 0 W/m2
04:30 2.9 °C 2.1 °C 1008.7 hPa Calm     94% 0 mm 0 W/m2
04:36 2.9 °C 2.1 °C 1008.7 hPa Calm     94% 0 mm 0 W/m2
04:42 2.9 °C 2.1 °C 1008.7 hPa Calm     94% 0 mm 0 W/m2
04:48 2.9 °C 2.1 °C 1008.7 hPa Calm     94% 0 mm 0 W/m2
04:54 2.9 °C 2.1 °C 1008.7 hPa Calm     94% 0 mm 0 W/m2
05:00 2.9 °C 2 °C 1008.7 hPa Calm     94% 0 mm 0 W/m2
05:06 2.9 °C 2 °C 1008.7 hPa Calm     94% 0 mm 0 W/m2
05:12 2.9 °C 2.1 °C 1008.7 hPa Calm     94% 0 mm 0 W/m2
05:18 2.9 °C 2.1 °C 1008.7 hPa Calm     94% 0 mm 0 W/m2
05:24 3 °C 2.1 °C 1009 hPa Calm     94% 0 mm 0 W/m2
05:30 3.1 °C 2.2 °C 1009 hPa Calm     94% 0 mm 0 W/m2
05:36 3.1 °C 2.2 °C 1009 hPa Calm     94% 0 mm 0 W/m2
05:42 3 °C 2.1 °C 1008.7 hPa Calm     94% 0 mm 0 W/m2
05:48 2.9 °C 2.1 °C 1009 hPa Calm   1.6 km/h 94% 0 mm 0 W/m2
05:54 3 °C 2.1 °C 1009 hPa Calm     94% 0 mm 0 W/m2
06:00 3 °C 2.1 °C 1009 hPa Calm     94% 0 mm 0 W/m2
06:06 3 °C 2.1 °C 1009 hPa Calm     94% 0 mm 0 W/m2
06:12 3.1 °C 2.2 °C 1009 hPa Calm   1.6 km/h 94% 0 mm 0 W/m2
06:18 3.1 °C 2.2 °C 1009 hPa Calm   1.6 km/h 94% 0 mm 0 W/m2
06:24 3.1 °C 2.2 °C 1009 hPa Calm     94% 0 mm 0 W/m2
06:30 3.1 °C 2.2 °C 1009 hPa Calm     94% 0 mm 0 W/m2
06:36 3.1 °C 2.2 °C 1009 hPa Calm     94% 0 mm 0 W/m2
06:42 3.2 °C 2.3 °C 1009 hPa Calm     94% 0 mm 0 W/m2
06:48 3.2 °C 2.3 °C 1008.7 hPa Calm     94% 0 mm 0 W/m2
06:54 3.2 °C 2.3 °C 1008.7 hPa ENE 1.6 km/h 1.6 km/h 94% 0 mm 0 W/m2
07:00 3.2 °C 2.3 °C 1009 hPa SSW 1.6 km/h 1.6 km/h 94% 0 mm 0 W/m2
07:06 3.3 °C 2.4 °C 1009 hPa Calm   1.6 km/h 94% 0 mm 0 W/m2
07:12 3.3 °C 2.4 °C 1009 hPa Calm     94% 0 mm 0 W/m2
07:18 3.3 °C 2.4 °C 1009 hPa Calm   1.6 km/h 94% 0 mm 0 W/m2
07:24 3.3 °C 2.4 °C 1009 hPa Calm   3.2 km/h 94% 0 mm 0 W/m2
07:30 3.4 °C 2.5 °C 1009 hPa SSW 1.6 km/h 1.6 km/h 94% 0 mm 0 W/m2
07:36 3.4 °C 2.5 °C 1009 hPa Calm   1.6 km/h 94% 0 mm 0 W/m2
07:42 3.4 °C 2.6 °C 1009 hPa Calm     94% 0 mm 0 W/m2
07:48 3.4 °C 2.6 °C 1009 hPa Calm   1.6 km/h 94% 0 mm 0 W/m2
07:54 3.3 °C 2.4 °C 1009 hPa Calm   3.2 km/h 94% 0 mm 0 W/m2
08:00 3.3 °C 2.4 °C 1009 hPa Calm     94% 0 mm 5 W/m2
08:06 3.3 °C 2.4 °C 1009 hPa Calm     94% 0 mm 7 W/m2
08:12 3.3 °C 2.4 °C 1008.7 hPa Calm     94% 0 mm 12 W/m2
08:18 3.3 °C 2.4 °C 1008.7 hPa Calm     94% 0 mm 14 W/m2
08:24 3.4 °C 2.5 °C 1008.4 hPa Calm     94% 0 mm 19 W/m2
08:30 3.4 °C 2.6 °C 1008.4 hPa Calm     94% 0 mm 21 W/m2
08:36 3.6 °C 2.7 °C 1008.7 hPa Calm     94% 0 mm 23 W/m2
08:42 3.7 °C 2.8 °C 1008.7 hPa Calm   1.6 km/h 94% 0 mm 23 W/m2
08:48 3.7 °C 2.8 °C 1009 hPa Calm   1.6 km/h 94% 0 mm 25 W/m2
08:54 3.8 °C 2.9 °C 1009 hPa Calm     94% 0 mm 26 W/m2
09:00 3.8 °C 2.9 °C 1009 hPa Calm     94% 0 mm 46 W/m2
09:06 3.8 °C 2.9 °C 1009 hPa Calm     94% 0 mm 65 W/m2
09:12 4 °C 3.3 °C 1009 hPa Calm     95% 0 mm 58 W/m2
09:18 4.2 °C 3.3 °C 1009 hPa Calm     94% 0 mm 56 W/m2
09:24 4.4 °C 3.7 °C 1008.7 hPa Calm     95% 0 mm 84 W/m2
09:30 4.8 °C 4.1 °C 1009 hPa Calm     95% 0 mm 118 W/m2
09:36 5.1 °C 4.3 °C 1009 hPa Calm     95% 0 mm 151 W/m2
09:42 5.4 °C 4.7 °C 1008.7 hPa Calm     95% 0 mm 127 W/m2
09:48 5.6 °C 4.8 °C 1009 hPa Calm     95% 0 mm 88 W/m2
09:54 5.7 °C 4.9 °C 1009 hPa Calm     95% 0 mm 70 W/m2
10:00 5.8 °C 5.1 °C 1008.7 hPa Calm     95% 0 mm 77 W/m2
10:06 5.9 °C 5 °C 1008.7 hPa Calm     94% 0 mm 86 W/m2
10:12 5.9 °C 5.2 °C 1008.4 hPa Calm     95% 0 mm 65 W/m2
10:18 6.1 °C 5.2 °C 1008.7 hPa Calm     94% 0 mm 88 W/m2
10:24 6.2 °C 5.3 °C 1009 hPa Calm     94% 0 mm 86 W/m2
10:30 6.3 °C 5.4 °C 1008.7 hPa Calm     94% 0 mm 90 W/m2
10:36 6.4 °C 5.6 °C 1009 hPa Calm     94% 0 mm 83 W/m2
10:42 6.7 °C 5.6 °C 1008.7 hPa Calm   4.8 km/h 93% 0 mm 102 W/m2
10:48 6.6 °C 5.6 °C 1008.4 hPa ENE 1.6 km/h 4.8 km/h 93% 0 mm 137 W/m2
10:54 6.6 °C 5.4 °C 1008.4 hPa ENE 1.6 km/h 4.8 km/h 92% 0 mm 141 W/m2
11:00 6.3 °C 4.9 °C 1008.4 hPa ENE 3.2 km/h 3.2 km/h 91% 0 mm 294 W/m2
11:06 6.2 °C 4.7 °C 1008.4 hPa North 3.2 km/h 4.8 km/h 90% 0 mm 200 W/m2
11:12 6.2 °C 4.6 °C 1008 hPa North 3.2 km/h 4.8 km/h 89% 0 mm 167 W/m2
11:18 6 °C 4.3 °C 1008 hPa NNW 4.8 km/h 4.8 km/h 89% 0 mm 160 W/m2
11:24 6 °C 4.3 °C 1008 hPa NNW 3.2 km/h 4.8 km/h 89% 0 mm 176 W/m2
11:30 6.3 °C 4.8 °C 1008 hPa NE 1.6 km/h 1.6 km/h 90% 0 mm 225 W/m2
11:36 6.4 °C 4.7 °C 1008 hPa ENE 1.6 km/h 3.2 km/h 89% 0 mm 213 W/m2
11:42 6.6 °C 4.7 °C 1007.7 hPa ENE 1.6 km/h 1.6 km/h 88% 0 mm 207 W/m2
11:48 6.7 °C 5.1 °C 1007.7 hPa NNE 1.6 km/h 1.6 km/h 89% 0 mm 185 W/m2
11:54 6.9 °C 5.1 °C 1007.3 hPa NE 1.6 km/h 3.2 km/h 88% 0 mm 244 W/m2
12:00 7.2 °C 5.2 °C 1007.3 hPa NE 1.6 km/h 1.6 km/h 87% 0 mm 308 W/m2
12:06 7.6 °C 5.2 °C 1007.3 hPa NE 1.6 km/h 1.6 km/h 85% 0 mm 330 W/m2
12:12 7.8 °C 5.4 °C 1007.3 hPa ENE 1.6 km/h 4.8 km/h 85% 0 mm 343 W/m2
12:18 7.9 °C 6.1 °C 1007.3 hPa ENE 1.6 km/h 4.8 km/h 88% 0 mm 271 W/m2
12:24 8.2 °C 6 °C 1007.3 hPa ENE 1.6 km/h 3.2 km/h 86% 0 mm 396 W/m2
12:30 8.6 °C 6.1 °C 1007.3 hPa ENE 1.6 km/h 1.6 km/h 84% 0 mm 475 W/m2
12:36 8.5 °C 5.9 °C 1007 hPa ENE 3.2 km/h 4.8 km/h 84% 0 mm 427 W/m2
12:42 8.6 °C 6.2 °C 1007 hPa NE 3.2 km/h 4.8 km/h 85% 0 mm 434 W/m2
12:48 8.7 °C 6.3 °C 1007 hPa NE 3.2 km/h 4.8 km/h 85% 0 mm 415 W/m2
12:54 8.7 °C 6.3 °C 1007 hPa East 3.2 km/h 4.8 km/h 85% 0 mm 371 W/m2
13:00 9 °C 6.6 °C 1007 hPa NNE 3.2 km/h 3.2 km/h 85% 0 mm 383 W/m2
13:06 9.1 °C 6.3 °C 1006.7 hPa East 3.2 km/h 4.8 km/h 83% 0 mm 434 W/m2
13:12 9.3 °C 6.8 °C 1007 hPa ENE 3.2 km/h 4.8 km/h 84% 0 mm 411 W/m2
13:18 9.1 °C 6.6 °C 1006.7 hPa ENE 3.2 km/h 8 km/h 84% 0 mm 417 W/m2
13:24 9.6 °C 7.1 °C 1006.7 hPa North 3.2 km/h 6.4 km/h 84% 0 mm 396 W/m2
13:30 9.7 °C 7 °C 1006.7 hPa NE 3.2 km/h 6.4 km/h 83% 0 mm 364 W/m2
13:36 9.4 °C 6.5 °C 1006.3 hPa North 3.2 km/h 6.4 km/h 82% 0 mm 367 W/m2
13:42 9.5 °C 6.6 °C 1006.3 hPa ENE 3.2 km/h 3.2 km/h 82% 0 mm 276 W/m2
13:48 9.6 °C 6.7 °C 1006.3 hPa ENE 3.2 km/h 4.8 km/h 82% 0 mm 396 W/m2
13:54 9.9 °C 6.8 °C 1006.3 hPa NE 3.2 km/h 3.2 km/h 81% 0 mm 385 W/m2
14:00 9.5 °C 6.6 °C 1006 hPa NE 3.2 km/h 3.2 km/h 82% 0 mm 316 W/m2
14:06 9.7 °C 6.8 °C 1006.3 hPa ENE 3.2 km/h 4.8 km/h 82% 0 mm 292 W/m2
14:12 9.9 °C 6.8 °C 1006.3 hPa NNW 1.6 km/h 3.2 km/h 81% 0 mm 341 W/m2
14:18 9.9 °C 7 °C 1006.3 hPa NNW 3.2 km/h 4.8 km/h 82% 0 mm 362 W/m2
14:24 9.7 °C 6.4 °C 1006.3 hPa East 4.8 km/h 4.8 km/h 80% 0 mm 332 W/m2
14:30 9.6 °C 6.9 °C 1006.3 hPa NE 3.2 km/h 3.2 km/h 83% 0 mm 329 W/m2
14:36 9.6 °C 6.9 °C 1006.3 hPa ENE 3.2 km/h 4.8 km/h 83% 0 mm 320 W/m2
14:42 9.9 °C 6.8 °C 1006.7 hPa North 1.6 km/h 4.8 km/h 81% 0 mm 295 W/m2
14:48 9.8 °C 6.7 °C 1006.7 hPa ENE 3.2 km/h 4.8 km/h 81% 0 mm 271 W/m2
14:54 9.9 °C 6.8 °C 1006.7 hPa NNW 1.6 km/h 3.2 km/h 81% 0 mm 278 W/m2
15:00 10.1 °C 6.8 °C 1007 hPa NNW 1.6 km/h 1.6 km/h 80% 0 mm 181 W/m2
15:06 10.1 °C 6.8 °C 1007 hPa NE 1.6 km/h 1.6 km/h 80% 0 mm 95 W/m2
15:12 9.8 °C 6.6 °C 1007 hPa NE 1.6 km/h 3.2 km/h 80% 0 mm 91 W/m2
15:18 9.7 °C 6.6 °C 1007 hPa East 1.6 km/h 3.2 km/h 81% 0 mm 88 W/m2
15:26 9.3 °C 6.4 °C 1007.3 hPa East 3.2 km/h 4.8 km/h 82% 0 mm 72 W/m2
15:32 9.2 °C 6.5 °C 1007.3 hPa ENE 3.2 km/h 3.2 km/h 83% 0 mm 62 W/m2
15:38 9.2 °C 6.4 °C 1007.3 hPa ENE 1.6 km/h 3.2 km/h 83% 0 mm 49 W/m2
15:44 9.1 °C 6.4 °C 1007 hPa NE 1.6 km/h 4.8 km/h 83% 0 mm 46 W/m2
15:50 9.1 °C 6.5 °C 1007 hPa NE 1.6 km/h 3.2 km/h 84% 0 mm 40 W/m2
15:56 9.1 °C 6.5 °C 1007 hPa NE 1.6 km/h 3.2 km/h 84% 0 mm 37 W/m2
16:02 9 °C 6.4 °C 1007 hPa East 1.6 km/h 3.2 km/h 84% 0 mm 28 W/m2
16:08 8.9 °C 6.3 °C 1007 hPa East 1.6 km/h 3.2 km/h 84% 0 mm 23 W/m2
16:14 8.9 °C 6.3 °C 1007 hPa East 1.6 km/h 1.6 km/h 84% 0 mm 19 W/m2
16:20 8.8 °C 6.4 °C 1007 hPa Calm     85% 0 mm 18 W/m2
16:26 8.8 °C 6.4 °C 1007 hPa Calm   4.8 km/h 85% 0 mm 18 W/m2
16:32 8.7 °C 6.3 °C 1007 hPa ENE 1.6 km/h 1.6 km/h 85% 0 mm 18 W/m2
16:38 8.6 °C 6.2 °C 1007 hPa North 1.6 km/h 3.2 km/h 85% 0 mm 21 W/m2
16:44 8.4 °C 6.1 °C 1007 hPa ENE 1.6 km/h 4.8 km/h 85% 0 mm 19 W/m2
16:50 8.3 °C 5.9 °C 1006.7 hPa ENE 1.6 km/h 1.6 km/h 85% 0 mm 7 W/m2
16:56 8.1 °C 5.8 °C 1006.7 hPa ENE 1.6 km/h 1.6 km/h 86% 0 mm 5 W/m2
17:02 7.8 °C 5.6 °C 1006.7 hPa NNE 1.6 km/h 1.6 km/h 86% 0 mm 0 W/m2
17:08 7.5 °C 5.5 °C 1006.7 hPa NNE 1.6 km/h 3.2 km/h 87% 0 mm 0 W/m2
17:13 7.3 °C 5.3 °C 1007 hPa NNE 1.6 km/h 1.6 km/h 87% 0 mm 0 W/m2
17:20 7.2 °C 5.3 °C 1007 hPa NNE 1.6 km/h 1.6 km/h 88% 0 mm 0 W/m2
17:26 6.9 °C 5.1 °C 1007 hPa Calm   1.6 km/h 88% 0 mm 0 W/m2
17:32 6.8 °C 5.1 °C 1007 hPa Calm     89% 0 mm 0 W/m2
17:38 6.6 °C 4.9 °C 1007 hPa Calm     89% 0 mm 0 W/m2
17:44 6.4 °C 4.7 °C 1006.7 hPa Calm   1.6 km/h 89% 0 mm 0 W/m2
17:50 6.3 °C 4.8 °C 1006.7 hPa ENE 1.6 km/h 1.6 km/h 90% 0 mm 0 W/m2
17:56 6.3 °C 4.8 °C 1006.7 hPa Calm   1.6 km/h 90% 0 mm 0 W/m2
18:02 6.1 °C 4.6 °C 1006.3 hPa NE 1.6 km/h 1.6 km/h 90% 0 mm 0 W/m2
18:08 5.9 °C 4.4 °C 1006.3 hPa ENE 1.6 km/h 3.2 km/h 90% 0 mm 0 W/m2
18:14 6.2 °C 4.9 °C 1006.3 hPa ENE 3.2 km/h 6.4 km/h 91% 0 mm 0 W/m2
18:20 6.4 °C 5.1 °C 1006.3 hPa ENE 1.6 km/h 1.6 km/h 91% 0 mm 0 W/m2
18:26 6.6 °C 5.2 °C 1006.3 hPa ENE 1.6 km/h 1.6 km/h 91% 0 mm 0 W/m2
18:32 6.4 °C 4.9 °C 1006.3 hPa ENE 1.6 km/h 3.2 km/h 90% 0 mm 0 W/m2
18:38 6.6 °C 5.1 °C 1006.3 hPa East 1.6 km/h 3.2 km/h 90% 0 mm 0 W/m2
18:44 6.6 °C 5.1 °C 1006.3 hPa ESE 1.6 km/h 3.2 km/h 90% 0 mm 0 W/m2
18:50 6.7 °C 5.3 °C 1006.3 hPa ESE 1.6 km/h 3.2 km/h 91% 0 mm 0 W/m2
18:56 6.7 °C 5.3 °C 1006.3 hPa East 1.6 km/h 4.8 km/h 91% 0 mm 0 W/m2
19:02 6.7 °C 5.3 °C 1006.3 hPa East 1.6 km/h 1.6 km/h 91% 0 mm 0 W/m2
19:08 6.7 °C 5.3 °C 1006.3 hPa Calm   1.6 km/h 91% 0 mm 0 W/m2
19:14 6.6 °C 5.1 °C 1006.3 hPa Calm     90% 0 mm 0 W/m2
19:20 6.6 °C 5.2 °C 1006.3 hPa Calm   3.2 km/h 91% 0 mm 0 W/m2
19:26 6.6 °C 5.2 °C 1006.3 hPa ESE 1.6 km/h 3.2 km/h 91% 0 mm 0 W/m2
19:32 6.7 °C 5.3 °C 1006.7 hPa ESE 1.6 km/h 1.6 km/h 91% 0 mm 0 W/m2
19:38 6.7 °C 5.3 °C 1006.7 hPa ESE 1.6 km/h 3.2 km/h 91% 0 mm 0 W/m2
19:44 6.7 °C 5.3 °C 1006.7 hPa Calm   1.6 km/h 91% 0 mm 0 W/m2
19:50 6.7 °C 5.3 °C 1006.7 hPa East 1.6 km/h 1.6 km/h 91% 0 mm 0 W/m2
19:56 6.6 °C 5.2 °C 1006.7 hPa East 1.6 km/h 3.2 km/h 91% 0 mm 0 W/m2
20:02 6.7 °C 5.3 °C 1006.7 hPa East 1.6 km/h 3.2 km/h 91% 0 mm 0 W/m2
20:08 6.7 °C 5.4 °C 1006.7 hPa East 1.6 km/h 3.2 km/h 92% 0 mm 0 W/m2
20:14 6.6 °C 5.2 °C 1006.7 hPa East 1.6 km/h 1.6 km/h 91% 0 mm 0 W/m2
20:20 6.5 °C 5.1 °C 1006.3 hPa NNE 1.6 km/h 1.6 km/h 91% 0 mm 0 W/m2
20:26 6.4 °C 5.1 °C 1006.3 hPa NNE 1.6 km/h 1.6 km/h 91% 0 mm 0 W/m2
20:32 6.1 °C 4.8 °C 1006.3 hPa East 1.6 km/h 3.2 km/h 91% 0 mm 0 W/m2
20:38 6.3 °C 5.1 °C 1006.3 hPa ENE 3.2 km/h 3.2 km/h 92% 0 mm 0 W/m2
20:44 6.4 °C 5.2 °C 1006 hPa ENE 3.2 km/h 8 km/h 92% 0 mm 0 W/m2
20:50 6.6 °C 5.3 °C 1006 hPa NE 3.2 km/h 3.2 km/h 92% 0 mm 0 W/m2
20:56 6.6 °C 5.3 °C 1006 hPa ENE 1.6 km/h 3.2 km/h 92% 0 mm 0 W/m2
21:02 6.7 °C 5.4 °C 1006 hPa ENE 1.6 km/h 1.6 km/h 92% 0 mm 0 W/m2
21:10 6.6 °C 5.4 °C 1005.6 hPa East 1.6 km/h 1.6 km/h 92% 0 mm 0 W/m2
21:15 6.6 °C 5.4 °C 1006 hPa East 1.6 km/h 1.6 km/h 92% 0 mm 0 W/m2
21:22 6.6 °C 5.4 °C 1006 hPa East 1.6 km/h 1.6 km/h 92% 0 mm 0 W/m2
21:28 6.6 °C 5.2 °C 1006 hPa ENE 1.6 km/h 4.8 km/h 91% 0 mm 0 W/m2
21:34 6.4 °C 5 °C 1005.6 hPa East 1.6 km/h 4.8 km/h 91% 0 mm 0 W/m2
21:40 6.3 °C 5.1 °C 1005.6 hPa ENE 1.6 km/h 1.6 km/h 92% 0 mm 0 W/m2
21:46 6.2 °C 5 °C 1006 hPa East 1.6 km/h 1.6 km/h 92% 0 mm 0 W/m2
21:52 6.3 °C 5.1 °C 1006 hPa Calm   1.6 km/h 92% 0 mm 0 W/m2
21:58 6.2 °C 4.9 °C 1006.3 hPa Calm   1.6 km/h 92% 0 mm 0 W/m2
22:04 6.2 °C 5 °C 1006.3 hPa Calm   1.6 km/h 92% 0 mm 0 W/m2
22:10 6.2 °C 4.9 °C 1006.3 hPa ESE 1.6 km/h 1.6 km/h 92% 0 mm 0 W/m2
22:16 5.9 °C 4.7 °C 1006.3 hPa East 1.6 km/h 1.6 km/h 92% 0 mm 0 W/m2
22:22 5.8 °C 4.6 °C 1006 hPa ENE 1.6 km/h 4.8 km/h 92% 0 mm 0 W/m2
22:28 5.8 °C 4.6 °C 1005.6 hPa ENE 1.6 km/h 4.8 km/h 92% 0 mm 0 W/m2
22:34 5.9 °C 4.7 °C 1005.6 hPa ENE 1.6 km/h 3.2 km/h 92% 0 mm 0 W/m2
22:40 5.8 °C 4.6 °C 1005.6 hPa ENE 1.6 km/h 4.8 km/h 92% 0 mm 0 W/m2
22:46 5.8 °C 4.6 °C 1005.3 hPa ENE 3.2 km/h 8 km/h 92% 0 mm 0 W/m2
22:52 5.9 °C 4.7 °C 1005.3 hPa ENE 3.2 km/h 4.8 km/h 92% 0 mm 0 W/m2
22:58 6 °C 4.8 °C 1005.3 hPa East 3.2 km/h 6.4 km/h 92% 0 mm 0 W/m2
23:04 6 °C 4.8 °C 1005 hPa ENE 3.2 km/h 4.8 km/h 92% 0 mm 0 W/m2
23:10 6 °C 4.8 °C 1005 hPa ENE 3.2 km/h 3.2 km/h 92% 0 mm 0 W/m2
23:16 6 °C 4.8 °C 1004.6 hPa East 3.2 km/h 3.2 km/h 92% 0 mm 0 W/m2
23:22 5.9 °C 4.7 °C 1004.6 hPa ENE 1.6 km/h 1.6 km/h 92% 0 mm 0 W/m2
23:28 5.8 °C 4.6 °C 1004.6 hPa ENE 1.6 km/h 4.8 km/h 92% 0 mm 0 W/m2
23:34 5.8 °C 4.4 °C 1004.6 hPa ENE 1.6 km/h 3.2 km/h 91% 0 mm 0 W/m2
23:39 5.6 °C 4.3 °C 1004.6 hPa Calm     91% 0 mm 0 W/m2
23:46 5.6 °C 4.4 °C 1004.6 hPa Calm   4.8 km/h 92% 0 mm 0 W/m2
23:52 5.7 °C 4.4 °C 1004.3 hPa ESE 1.6 km/h 3.2 km/h 92% 0 mm 0 W/m2
23:58 5.7 °C 4.5 °C 1004.3 hPa ENE 1.6 km/h 3.2 km/h 92% 0 mm 0 W/m2
Country Meadow, Clay, NY, USA
Compliments of Weather Underground - 2 mb